PDA46B LFBO-UKBB

Flight info

Callsign PDA46B
Flight time 2h 54m
Altitude 30000
Route AMOLO DCT NOQAS DCT MURRO T544 LSE DCT BELUS DCT OMASI N871 DITON T103 BEMKI DCT KIRDI DCT PISAM DCT NETIR Z121 SKAVI L984 DIBED/K0869F300 N983 SORON M986 SLV
Aircraft T154/M-SDFGRWY/S

Departure

Time 2026-05-05 15:08
Airport Toulouse-Blagnac Airport (LFBO)

Arrival

Time 2026-05-05 18:02
Airport Boryspil International Airport (UKBB)
Time Latitude Longitude Altitude Speed Heading
2026-05-05 14:54 43.62229 1.37822 504 ft 0 kts 142°
2026-05-05 14:57 43.62231 1.37821 504 ft 1 kts 143°
2026-05-05 14:58 43.62244 1.37807 504 ft 3 kts 148°
2026-05-05 14:58 43.62259 1.37805 504 ft 2 kts 195°
2026-05-05 14:58 43.62273 1.37811 504 ft 2 kts 211°
2026-05-05 14:58 43.62281 1.37820 504 ft 0 kts 230°
2026-05-05 14:59 43.62285 1.37828 504 ft 0 kts 232°
2026-05-05 15:02 43.62284 1.37827 504 ft 0 kts 232°
2026-05-05 15:02 43.62272 1.37805 504 ft 4 kts 232°
2026-05-05 15:03 43.62244 1.37755 503 ft 8 kts 232°
2026-05-05 15:03 43.62223 1.37716 503 ft 5 kts 232°
2026-05-05 15:03 43.62187 1.37675 504 ft 7 kts 200°
2026-05-05 15:03 43.62138 1.37624 503 ft 11 kts 233°
2026-05-05 15:04 43.62089 1.37531 503 ft 2 kts 231°
2026-05-05 15:04 43.62080 1.37500 503 ft 4 kts 275°
2026-05-05 15:04 43.62097 1.37471 502 ft 3 kts 323°
2026-05-05 15:04 43.62103 1.37465 502 ft 0 kts 323°
2026-05-05 15:07 43.62107 1.37461 502 ft 6 kts 323°
2026-05-05 15:07 43.62279 1.37281 500 ft 65 kts 323°
2026-05-05 15:07 43.62835 1.36702 498 ft 134 kts 323°
2026-05-05 15:08 43.63713 1.35808 706 ft 168 kts 322°
2026-05-05 15:08 43.64663 1.34857 1275 ft 175 kts 323°
2026-05-05 15:08 43.65561 1.33704 1852 ft 179 kts 302°
2026-05-05 15:08 43.66440 1.32554 2544 ft 179 kts 336°
2026-05-05 15:09 43.67671 1.32441 3176 ft 183 kts 17°
2026-05-05 15:09 43.68788 1.33113 3929 ft 179 kts 33°
2026-05-05 15:09 43.69550 1.34506 4425 ft 192 kts 71°
2026-05-05 15:09 43.69820 1.36328 4998 ft 199 kts 82°
2026-05-05 15:10 43.70012 1.38248 5535 ft 207 kts 81°
2026-05-05 15:10 43.70240 1.40259 6044 ft 217 kts 80°
2026-05-05 15:10 43.70482 1.42354 6493 ft 228 kts 81°
2026-05-05 15:10 43.70744 1.44676 6659 ft 263 kts 81°
2026-05-05 15:11 43.71028 1.47230 7360 ft 276 kts 81°
2026-05-05 15:11 43.71316 1.49825 8321 ft 278 kts 82°
2026-05-05 15:11 43.71607 1.52454 9205 ft 282 kts 82°
2026-05-05 15:11 43.71905 1.55153 10107 ft 286 kts 82°
2026-05-05 15:12 43.72204 1.57858 10999 ft 290 kts 82°
2026-05-05 15:12 43.72507 1.60614 11893 ft 293 kts 83°
2026-05-05 15:12 43.72809 1.63363 12751 ft 297 kts 83°
2026-05-05 15:12 43.73119 1.66192 13602 ft 301 kts 84°
2026-05-05 15:13 43.73433 1.69083 14401 ft 306 kts 84°
2026-05-05 15:13 43.73747 1.71971 15243 ft 310 kts 84°
2026-05-05 15:13 43.74065 1.74896 16090 ft 313 kts 84°
2026-05-05 15:13 43.74389 1.77880 16901 ft 317 kts 84°
2026-05-05 15:14 43.74716 1.80902 17697 ft 322 kts 84°
2026-05-05 15:14 43.75048 1.83973 18522 ft 325 kts 84°
2026-05-05 15:14 43.75381 1.87071 19359 ft 326 kts 84°
2026-05-05 15:14 43.75717 1.90189 20167 ft 329 kts 84°
2026-05-05 15:15 43.76050 1.93303 20948 ft 332 kts 85°
2026-05-05 15:15 43.76386 1.96451 21724 ft 335 kts 85°
2026-05-05 15:15 43.76725 1.99633 22500 ft 338 kts 85°
2026-05-05 15:15 43.77071 2.02887 23277 ft 341 kts 85°
2026-05-05 15:16 43.77414 2.06127 24044 ft 344 kts 85°
2026-05-05 15:16 43.77759 2.09384 24725 ft 347 kts 85°
2026-05-05 15:16 43.78108 2.12703 25378 ft 351 kts 85°
2026-05-05 15:16 43.78458 2.16041 25974 ft 355 kts 85°
2026-05-05 15:17 43.78813 2.19424 26558 ft 359 kts 85°
2026-05-05 15:17 43.79169 2.22839 27110 ft 363 kts 86°
2026-05-05 15:17 43.79533 2.26334 27659 ft 367 kts 86°
2026-05-05 15:17 43.79890 2.29778 28198 ft 370 kts 86°
2026-05-05 15:18 43.80254 2.33291 28747 ft 372 kts 86°
2026-05-05 15:18 43.80624 2.36875 29271 ft 375 kts 86°
2026-05-05 15:18 43.80989 2.40409 29784 ft 377 kts 87°
2026-05-05 15:18 43.81359 2.44046 30036 ft 389 kts 87°
2026-05-05 15:19 43.81744 2.47863 30011 ft 410 kts 86°
2026-05-05 15:19 43.82144 2.51813 29976 ft 430 kts 86°
2026-05-05 15:19 43.82760 2.55964 29961 ft 454 kts 72°
2026-05-05 15:19 43.84249 2.59920 29976 ft 474 kts 53°
2026-05-05 15:20 43.86546 2.63207 30030 ft 487 kts 35°
2026-05-05 15:20 43.89357 2.65999 30083 ft 500 kts 33°
2026-05-05 15:20 43.92139 2.68890 30340 ft 509 kts 37°
2026-05-05 15:20 43.94883 2.71996 30943 ft 507 kts 38°
2026-05-05 15:21 43.97589 2.75109 31558 ft 504 kts 38°
2026-05-05 15:21 44.00273 2.78212 32138 ft 502 kts 39°
2026-05-05 15:21 44.02926 2.81293 32661 ft 500 kts 39°
2026-05-05 15:21 44.05555 2.84356 33192 ft 498 kts 39°
2026-05-05 15:22 44.08215 2.87462 33679 ft 497 kts 39°
2026-05-05 15:22 44.10858 2.90550 33939 ft 502 kts 39°
2026-05-05 15:22 44.13547 2.93676 34268 ft 505 kts 39°
2026-05-05 15:22 44.16208 2.96778 34804 ft 500 kts 39°
2026-05-05 15:23 44.18879 2.99905 35076 ft 502 kts 39°
2026-05-05 15:23 44.21528 3.03016 35376 ft 503 kts 39°
2026-05-05 15:23 44.24216 3.06178 35834 ft 500 kts 39°
2026-05-05 15:23 44.26855 3.09285 36262 ft 498 kts 39°
2026-05-05 15:24 44.29464 3.12362 36719 ft 495 kts 39°
2026-05-05 15:24 44.32108 3.15483 37137 ft 494 kts 39°
2026-05-05 15:24 44.34729 3.18583 37522 ft 493 kts 40°
2026-05-05 15:24 44.37345 3.21680 37679 ft 497 kts 39°
2026-05-05 15:25 44.39986 3.24809 37819 ft 502 kts 39°
2026-05-05 15:25 44.42661 3.27984 37964 ft 506 kts 39°
2026-05-05 15:25 44.45339 3.31163 37996 ft 512 kts 39°
2026-05-05 15:26 44.50752 3.37609 37985 ft 509 kts 39°
2026-05-05 15:26 44.56113 3.44005 37964 ft 509 kts 39°
2026-05-05 15:27 44.61494 3.50443 37958 ft 508 kts 39°
2026-05-05 15:27 44.66844 3.56861 37957 ft 507 kts 40°
2026-05-05 15:28 44.72189 3.63288 37972 ft 507 kts 39°
2026-05-05 15:28 44.77519 3.69734 37933 ft 507 kts 40°
2026-05-05 15:29 44.82873 3.76224 37930 ft 506 kts 40°
2026-05-05 15:29 44.88177 3.82654 37939 ft 505 kts 40°
2026-05-05 15:30 44.93502 3.89122 37961 ft 505 kts 40°
2026-05-05 15:30 44.98819 3.95596 37966 ft 506 kts 40°
2026-05-05 15:31 45.04094 4.02035 37958 ft 506 kts 40°
2026-05-05 15:31 45.09393 4.08521 37957 ft 505 kts 40°
2026-05-05 15:32 45.14735 4.15042 37917 ft 506 kts 40°
2026-05-05 15:32 45.20030 4.21537 37935 ft 507 kts 41°
2026-05-05 15:33 45.25366 4.28043 37938 ft 504 kts 40°
2026-05-05 15:33 45.30704 4.34434 37942 ft 504 kts 40°
2026-05-05 15:34 45.35670 4.41420 37964 ft 503 kts 51°
2026-05-05 15:34 45.40079 4.49171 37973 ft 504 kts 51°
2026-05-05 15:35 45.44544 4.56865 37958 ft 503 kts 51°
2026-05-05 15:35 45.49021 4.64592 37957 ft 503 kts 51°
2026-05-05 15:36 45.53452 4.72286 37927 ft 503 kts 52°
2026-05-05 15:36 45.57888 4.79994 37942 ft 503 kts 52°
2026-05-05 15:37 45.62309 4.87687 37949 ft 503 kts 52°
2026-05-05 15:37 45.66754 4.95443 37956 ft 502 kts 51°
2026-05-05 15:38 45.71139 5.03119 37958 ft 502 kts 53°
2026-05-05 15:38 45.72926 5.07428 37926 ft 495 kts 71°
2026-05-05 15:38 45.73753 5.12136 37951 ft 489 kts 89°
2026-05-05 15:38 45.73618 5.16936 37970 ft 483 kts 104°
2026-05-05 15:39 45.72908 5.21611 38006 ft 483 kts 107°
2026-05-05 15:39 45.71512 5.30960 37987 ft 484 kts 105°
2026-05-05 15:40 45.70184 5.40408 37964 ft 483 kts 105°
2026-05-05 15:40 45.68858 5.49827 37960 ft 483 kts 105°
2026-05-05 15:41 45.68603 5.59368 37937 ft 492 kts 78°
2026-05-05 15:41 45.69829 5.63995 37943 ft 498 kts 61°
2026-05-05 15:41 45.71879 5.67973 37947 ft 503 kts 46°
2026-05-05 15:42 45.76850 5.75007 37976 ft 504 kts 48°
2026-05-05 15:42 45.81494 5.82435 37961 ft 503 kts 50°
2026-05-05 15:43 45.86059 5.89941 37967 ft 503 kts 50°
2026-05-05 15:43 45.90650 5.97492 37971 ft 502 kts 47°
2026-05-05 15:44 45.95816 6.04282 37967 ft 501 kts 41°
2026-05-05 15:44 46.01028 6.10982 37967 ft 502 kts 42°
2026-05-05 15:45 46.06211 6.17726 37963 ft 502 kts 42°
2026-05-05 15:45 46.11428 6.24531 37934 ft 502 kts 42°
2026-05-05 15:46 46.16629 6.31295 37932 ft 501 kts 42°
2026-05-05 15:46 46.21822 6.38103 37957 ft 501 kts 43°
2026-05-05 15:47 46.26982 6.44892 37956 ft 500 kts 43°
2026-05-05 15:47 46.32101 6.51647 37964 ft 500 kts 42°
2026-05-05 15:48 46.37213 6.58410 37971 ft 499 kts 43°
2026-05-05 15:48 46.42324 6.65190 37978 ft 498 kts 43°
2026-05-05 15:49 46.47038 6.72525 37953 ft 497 kts 53°
2026-05-05 15:49 46.51304 6.80363 37964 ft 496 kts 52°
2026-05-05 15:50 46.55648 6.88197 37965 ft 499 kts 52°
2026-05-05 15:50 46.59985 6.95997 37974 ft 500 kts 52°
2026-05-05 15:51 46.64347 7.03846 37956 ft 498 kts 52°
2026-05-05 15:51 46.68685 7.11683 37973 ft 499 kts 52°
2026-05-05 15:52 46.73038 7.19567 37963 ft 497 kts 52°
2026-05-05 15:52 46.77345 7.27392 37955 ft 497 kts 52°
2026-05-05 15:53 46.81643 7.35222 37950 ft 497 kts 52°
2026-05-05 15:53 46.85958 7.43109 37953 ft 496 kts 52°
2026-05-05 15:54 46.90250 7.50999 37942 ft 495 kts 52°
2026-05-05 15:54 46.94514 7.58859 37942 ft 496 kts 52°
2026-05-05 15:55 46.98766 7.66719 37933 ft 494 kts 53°
2026-05-05 15:55 47.03008 7.74605 37921 ft 495 kts 53°
2026-05-05 15:56 47.07271 7.82522 37923 ft 495 kts 53°
2026-05-05 15:56 47.11503 7.90389 37892 ft 494 kts 53°
2026-05-05 15:57 47.15512 7.98499 37926 ft 492 kts 60°
2026-05-05 15:57 47.19087 8.07058 37940 ft 492 kts 60°
2026-05-05 15:58 47.22685 8.15532 37934 ft 492 kts 59°
2026-05-05 15:58 47.26291 8.24035 37944 ft 492 kts 60°
2026-05-05 15:59 47.29868 8.32591 37928 ft 490 kts 64°
2026-05-05 15:59 47.31164 8.37230 37933 ft 485 kts 75°
2026-05-05 15:59 47.32156 8.41917 37957 ft 486 kts 75°
2026-05-05 16:00 47.34215 8.51356 37956 ft 485 kts 74°
2026-05-05 16:00 47.36285 8.60770 37954 ft 485 kts 74°
2026-05-05 16:01 47.38350 8.70204 37914 ft 486 kts 75°
2026-05-05 16:01 47.40408 8.79663 37922 ft 486 kts 75°
2026-05-05 16:02 47.42461 8.89121 37938 ft 486 kts 75°
2026-05-05 16:02 47.44515 8.98629 37961 ft 486 kts 75°
2026-05-05 16:03 47.46551 9.08089 37950 ft 485 kts 75°
2026-05-05 16:03 47.48587 9.17590 37949 ft 486 kts 75°
2026-05-05 16:04 47.50606 9.27069 37936 ft 484 kts 75°
2026-05-05 16:04 47.52609 9.36499 37940 ft 485 kts 75°
2026-05-05 16:05 47.54610 9.45974 37935 ft 484 kts 75°
2026-05-05 16:05 47.56597 9.55426 37940 ft 484 kts 75°
2026-05-05 16:06 47.58429 9.64968 37894 ft 480 kts 86°
2026-05-05 16:06 47.58495 9.69828 37915 ft 473 kts 97°
2026-05-05 16:06 47.58276 9.74717 37930 ft 477 kts 97°
2026-05-05 16:07 47.57880 9.84485 37942 ft 476 kts 97°
2026-05-05 16:07 47.57484 9.94197 37961 ft 477 kts 96°
2026-05-05 16:08 47.57075 10.03984 37990 ft 477 kts 97°
2026-05-05 16:08 47.56656 10.13776 37994 ft 477 kts 96°
2026-05-05 16:09 47.56231 10.23531 37996 ft 477 kts 97°
2026-05-05 16:09 47.56623 10.33273 37958 ft 482 kts 73°
2026-05-05 16:10 47.59148 10.42517 38018 ft 490 kts 69°
2026-05-05 16:10 47.61671 10.51798 38004 ft 487 kts 69°
2026-05-05 16:11 47.64172 10.61092 37986 ft 487 kts 70°
2026-05-05 16:12 47.69143 10.79729 37957 ft 489 kts 70°
2026-05-05 16:13 47.75325 11.03066 37946 ft 488 kts 70°
2026-05-05 16:13 47.77791 11.12440 37947 ft 487 kts 70°
2026-05-05 16:14 47.82696 11.31198 37942 ft 487 kts 70°
2026-05-05 16:15 47.87572 11.49996 37942 ft 486 kts 70°
2026-05-05 16:16 47.92414 11.68827 37897 ft 487 kts 71°
2026-05-05 16:17 47.96009 11.82938 37898 ft 487 kts 71°
2026-05-05 16:18 47.99599 11.97082 37892 ft 487 kts 70°
2026-05-05 16:19 48.03160 12.11200 37902 ft 487 kts 70°
2026-05-05 16:19 48.06726 12.25428 37910 ft 487 kts 70°
2026-05-05 16:20 48.11434 12.44283 37888 ft 486 kts 70°
2026-05-05 16:22 48.17285 12.67909 37887 ft 486 kts 71°
2026-05-05 16:23 48.22017 12.86859 37931 ft 486 kts 67°
2026-05-05 16:23 48.25970 13.00734 37950 ft 486 kts 68°
2026-05-05 16:24 48.28576 13.10055 37954 ft 487 kts 68°
2026-05-05 16:25 48.32467 13.24057 37944 ft 487 kts 68°
2026-05-05 16:25 48.36353 13.38123 37944 ft 484 kts 68°
2026-05-05 16:26 48.41493 13.56863 37955 ft 485 kts 68°
2026-05-05 16:27 48.44058 13.66271 37948 ft 484 kts 68°
2026-05-05 16:27 48.46588 13.75621 37922 ft 486 kts 68°
2026-05-05 16:28 48.49131 13.85030 37937 ft 485 kts 68°
2026-05-05 16:28 48.51656 13.94404 37946 ft 486 kts 68°
2026-05-05 16:29 48.54177 14.03801 37946 ft 484 kts 68°
2026-05-05 16:29 48.56692 14.13211 37962 ft 484 kts 68°
2026-05-05 16:30 48.59195 14.22617 37969 ft 484 kts 68°
2026-05-05 16:30 48.61706 14.32085 37980 ft 484 kts 68°
2026-05-05 16:31 48.64203 14.41543 37973 ft 484 kts 68°
2026-05-05 16:31 48.66671 14.50933 37976 ft 483 kts 68°
2026-05-05 16:32 48.69159 14.60430 37979 ft 483 kts 68°
2026-05-05 16:32 48.71622 14.69886 37946 ft 484 kts 69°
2026-05-05 16:33 48.74062 14.79314 37967 ft 484 kts 69°
2026-05-05 16:33 48.76519 14.88824 37971 ft 483 kts 69°
2026-05-05 16:34 48.78969 14.98330 37976 ft 483 kts 69°
2026-05-05 16:34 48.81400 15.07810 37983 ft 482 kts 69°
2026-05-05 16:35 48.83834 15.17333 37989 ft 482 kts 69°
2026-05-05 16:35 48.86247 15.26825 37987 ft 482 kts 69°
2026-05-05 16:36 48.88648 15.36303 37991 ft 481 kts 69°
2026-05-05 16:36 48.91073 15.45762 37992 ft 481 kts 68°
2026-05-05 16:37 48.93531 15.55231 37988 ft 481 kts 68°
2026-05-05 16:37 48.95968 15.64694 38005 ft 481 kts 68°
2026-05-05 16:38 48.98392 15.74180 37975 ft 481 kts 69°
2026-05-05 16:38 49.00833 15.83755 37994 ft 481 kts 69°
2026-05-05 16:39 49.03250 15.93266 38010 ft 480 kts 69°
2026-05-05 16:39 49.05651 16.02752 38012 ft 481 kts 69°
2026-05-05 16:40 49.08046 16.12258 38019 ft 481 kts 69°
2026-05-05 16:40 49.10444 16.21805 38021 ft 481 kts 69°
2026-05-05 16:41 49.12856 16.31323 37961 ft 480 kts 69°
2026-05-05 16:41 49.15222 16.40794 37873 ft 480 kts 69°
2026-05-05 16:42 49.17581 16.50310 37885 ft 479 kts 69°
2026-05-05 16:42 49.19925 16.59809 37887 ft 480 kts 69°
2026-05-05 16:43 49.22271 16.69364 37853 ft 482 kts 70°
2026-05-05 16:43 49.24609 16.78955 37871 ft 481 kts 70°
2026-05-05 16:44 49.26924 16.88463 37885 ft 481 kts 70°
2026-05-05 16:44 49.29245 16.98034 37892 ft 480 kts 70°
2026-05-05 16:45 49.31553 17.07591 37892 ft 480 kts 70°
2026-05-05 16:45 49.33851 17.17152 37896 ft 480 kts 70°
2026-05-05 16:46 49.36146 17.26739 37898 ft 480 kts 70°
2026-05-05 16:46 49.38433 17.36332 37901 ft 480 kts 70°
2026-05-05 16:47 49.40717 17.45960 37899 ft 479 kts 70°
2026-05-05 16:47 49.42990 17.55583 37904 ft 479 kts 70°
2026-05-05 16:48 49.45242 17.65156 37907 ft 478 kts 70°
2026-05-05 16:48 49.47485 17.74768 37877 ft 479 kts 70°
2026-05-05 16:49 49.49735 17.84435 37899 ft 480 kts 70°
2026-05-05 16:49 49.51965 17.94047 37904 ft 480 kts 70°
2026-05-05 16:50 49.54184 18.03653 37905 ft 479 kts 70°
2026-05-05 16:50 49.56401 18.13293 37919 ft 479 kts 70°
2026-05-05 16:51 49.58613 18.22955 37919 ft 478 kts 70°
2026-05-05 16:51 49.60809 18.32593 37917 ft 478 kts 70°
2026-05-05 16:52 49.62996 18.42233 37920 ft 477 kts 70°
2026-05-05 16:52 49.65176 18.51883 37916 ft 478 kts 70°
2026-05-05 16:53 49.67338 18.61501 37920 ft 478 kts 70°
2026-05-05 16:53 49.69505 18.71205 37880 ft 479 kts 71°
2026-05-05 16:54 49.71565 18.80907 37904 ft 479 kts 72°
2026-05-05 16:54 49.73614 18.90669 37922 ft 479 kts 72°
2026-05-05 16:55 49.75668 19.00455 37942 ft 478 kts 72°
2026-05-05 16:55 49.77696 19.10164 37927 ft 478 kts 72°
2026-05-05 16:56 49.79727 19.19931 37929 ft 478 kts 72°
2026-05-05 16:56 49.81759 19.29752 37927 ft 479 kts 72°
2026-05-05 16:57 49.83764 19.39491 37928 ft 478 kts 72°
2026-05-05 16:57 49.85766 19.49278 37932 ft 478 kts 72°
2026-05-05 16:58 49.87767 19.59110 37932 ft 478 kts 72°
2026-05-05 16:58 49.89735 19.68832 37896 ft 478 kts 72°
2026-05-05 16:59 49.91704 19.78628 37913 ft 478 kts 72°
2026-05-05 16:59 49.93652 19.88506 37917 ft 478 kts 77°
2026-05-05 17:00 49.94008 19.93558 37920 ft 475 kts 90°
2026-05-05 17:00 49.93974 19.98711 37953 ft 479 kts 91°
2026-05-05 17:00 49.93923 20.08981 37940 ft 478 kts 90°
2026-05-05 17:01 49.93874 20.19299 37941 ft 479 kts 91°
2026-05-05 17:01 49.93811 20.29635 37939 ft 478 kts 91°
2026-05-05 17:02 49.93740 20.39967 37931 ft 478 kts 91°
2026-05-05 17:02 49.93660 20.50201 37936 ft 478 kts 90°
2026-05-05 17:03 49.93572 20.60472 37939 ft 477 kts 90°
2026-05-05 17:03 49.93473 20.70780 37883 ft 478 kts 91°
2026-05-05 17:04 49.93372 20.81063 37918 ft 478 kts 91°
2026-05-05 17:04 49.93268 20.91341 37927 ft 478 kts 91°
2026-05-05 17:05 49.93152 21.01664 37932 ft 478 kts 91°
2026-05-05 17:05 49.93028 21.11916 37934 ft 479 kts 91°
2026-05-05 17:06 49.92891 21.22254 37937 ft 478 kts 91°
2026-05-05 17:06 49.92722 21.32466 37940 ft 478 kts 91°
2026-05-05 17:07 49.92549 21.42738 37935 ft 478 kts 91°
2026-05-05 17:07 49.92386 21.53081 37938 ft 477 kts 91°
2026-05-05 17:08 49.92213 21.63278 37933 ft 476 kts 91°
2026-05-05 17:08 49.92028 21.73544 37896 ft 476 kts 91°
2026-05-05 17:09 49.91830 21.83835 37911 ft 476 kts 91°
2026-05-05 17:09 49.91625 21.94013 37926 ft 476 kts 91°
2026-05-05 17:10 49.91409 22.04293 37929 ft 476 kts 91°
2026-05-05 17:10 49.91187 22.14495 37938 ft 475 kts 91°
2026-05-05 17:11 49.90956 22.24725 37943 ft 474 kts 91°
2026-05-05 17:11 49.90715 22.34928 37947 ft 473 kts 91°
2026-05-05 17:12 49.90466 22.45098 37951 ft 473 kts 91°
2026-05-05 17:12 49.90208 22.55265 37957 ft 472 kts 91°
2026-05-05 17:13 49.89944 22.65380 37960 ft 472 kts 92°
2026-05-05 17:13 49.89674 22.75503 37933 ft 472 kts 92°
2026-05-05 17:14 49.89392 22.85619 37950 ft 471 kts 92°
2026-05-05 17:14 49.89099 22.95758 37956 ft 471 kts 92°
2026-05-05 17:15 49.88799 23.05870 37963 ft 471 kts 92°
2026-05-05 17:15 49.88520 23.15918 37967 ft 470 kts 91°
2026-05-05 17:16 49.88244 23.26005 37967 ft 469 kts 91°
2026-05-05 17:16 49.87954 23.36092 37966 ft 469 kts 91°
2026-05-05 17:17 49.87655 23.46139 37963 ft 469 kts 91°
2026-05-05 17:17 49.87346 23.56181 37962 ft 468 kts 91°
2026-05-05 17:18 49.87027 23.66293 37956 ft 467 kts 92°
2026-05-05 17:18 49.86700 23.76369 37946 ft 467 kts 92°
2026-05-05 17:19 49.86366 23.86399 37956 ft 468 kts 92°
2026-05-05 17:19 49.86024 23.96389 37964 ft 467 kts 92°
2026-05-05 17:20 49.85671 24.06435 37966 ft 467 kts 92°
2026-05-05 17:20 49.85313 24.16402 37960 ft 466 kts 92°
2026-05-05 17:21 49.84945 24.26407 37955 ft 465 kts 92°
2026-05-05 17:22 49.84380 24.41311 37943 ft 463 kts 92°
2026-05-05 17:22 49.83993 24.51249 37941 ft 464 kts 92°
2026-05-05 17:23 49.83598 24.61164 37947 ft 465 kts 92°
2026-05-05 17:23 49.83194 24.71106 37907 ft 464 kts 92°
2026-05-05 17:24 49.82782 24.81036 37924 ft 464 kts 93°
2026-05-05 17:24 49.82359 24.90994 37923 ft 463 kts 92°
2026-05-05 17:25 49.81932 25.00855 37919 ft 462 kts 92°
2026-05-05 17:25 49.81497 25.10723 37930 ft 462 kts 92°
2026-05-05 17:26 49.81052 25.20605 37925 ft 461 kts 92°
2026-05-05 17:26 49.80601 25.30460 37924 ft 462 kts 92°
2026-05-05 17:27 49.80154 25.40328 37922 ft 462 kts 91°
2026-05-05 17:27 49.80100 25.50222 37927 ft 461 kts 89°
2026-05-05 17:28 49.80052 25.60151 37931 ft 461 kts 89°
2026-05-05 17:28 49.79975 25.70017 37886 ft 461 kts 90°
2026-05-05 17:29 49.79886 25.79940 37893 ft 461 kts 90°
2026-05-05 17:29 49.79789 25.89817 37907 ft 462 kts 90°
2026-05-05 17:30 49.79683 25.99666 37923 ft 462 kts 90°
2026-05-05 17:30 49.79568 26.09608 37930 ft 462 kts 90°
2026-05-05 17:31 49.79446 26.19509 37928 ft 462 kts 90°
2026-05-05 17:31 49.79314 26.29402 37927 ft 462 kts 90°
2026-05-05 17:32 49.79175 26.39266 37932 ft 461 kts 90°
2026-05-05 17:32 49.79027 26.49158 37936 ft 461 kts 90°
2026-05-05 17:33 49.78872 26.58981 37935 ft 460 kts 90°
2026-05-05 17:33 49.78707 26.68882 37890 ft 461 kts 91°
2026-05-05 17:34 49.78535 26.78733 37905 ft 460 kts 90°
2026-05-05 17:34 49.78356 26.88514 37912 ft 459 kts 90°
2026-05-05 17:35 49.78167 26.98390 37918 ft 460 kts 90°
2026-05-05 17:35 49.77970 27.08206 37917 ft 459 kts 91°
2026-05-05 17:36 49.77764 27.18021 37922 ft 459 kts 91°
2026-05-05 17:36 49.77552 27.27869 37926 ft 458 kts 90°
2026-05-05 17:37 49.77333 27.37709 37938 ft 458 kts 91°
2026-05-05 17:37 49.77105 27.47493 37933 ft 457 kts 90°
2026-05-05 17:38 49.76867 27.57312 37937 ft 456 kts 90°
2026-05-05 17:38 49.76621 27.67091 37916 ft 457 kts 91°
2026-05-05 17:39 49.76367 27.76900 37920 ft 457 kts 91°
2026-05-05 17:39 49.76593 27.86614 37897 ft 453 kts 73°
2026-05-05 17:40 49.78878 27.95660 37977 ft 455 kts 67°
2026-05-05 17:40 49.81216 28.04717 37954 ft 454 kts 68°
2026-05-05 17:41 49.83523 28.13754 37948 ft 453 kts 68°
2026-05-05 17:41 49.85789 28.22666 37769 ft 438 kts 68°
2026-05-05 17:41 49.86896 28.27030 37125 ft 442 kts 68°
2026-05-05 17:42 49.88015 28.31449 36558 ft 444 kts 68°
2026-05-05 17:42 49.89141 28.35908 36200 ft 443 kts 67°
2026-05-05 17:42 49.90256 28.40333 35823 ft 443 kts 67°
2026-05-05 17:42 49.91366 28.44746 35422 ft 443 kts 67°
2026-05-05 17:43 49.92486 28.49207 35041 ft 443 kts 67°
2026-05-05 17:43 49.93594 28.53631 34637 ft 442 kts 67°
2026-05-05 17:43 49.94706 28.58075 34129 ft 443 kts 67°
2026-05-05 17:43 49.95821 28.62546 33617 ft 443 kts 68°
2026-05-05 17:44 49.96924 28.66974 33057 ft 444 kts 68°
2026-05-05 17:44 49.98035 28.71463 32373 ft 448 kts 69°
2026-05-05 17:44 49.99146 28.75958 31821 ft 447 kts 69°
2026-05-05 17:44 50.00254 28.80444 31226 ft 448 kts 69°
2026-05-05 17:45 50.01364 28.84940 30626 ft 447 kts 69°
2026-05-05 17:45 50.02481 28.89469 29883 ft 449 kts 69°
2026-05-05 17:45 50.03586 28.93962 29128 ft 450 kts 69°
2026-05-05 17:45 50.04697 28.98488 28288 ft 451 kts 69°
2026-05-05 17:46 50.05796 29.03038 27425 ft 452 kts 69°
2026-05-05 17:46 50.06898 29.07626 26475 ft 453 kts 69°
2026-05-05 17:46 50.07992 29.12184 25466 ft 454 kts 69°
2026-05-05 17:46 50.09081 29.16719 24354 ft 454 kts 70°
2026-05-05 17:47 50.10189 29.21345 23120 ft 455 kts 69°
2026-05-05 17:47 50.11286 29.25886 21683 ft 458 kts 69°
2026-05-05 17:47 50.12402 29.30480 20827 ft 445 kts 69°
2026-05-05 17:47 50.13453 29.34863 20403 ft 424 kts 69°
2026-05-05 17:48 50.14442 29.39020 20444 ft 396 kts 69°
2026-05-05 17:48 50.15364 29.42903 20389 ft 375 kts 69°
2026-05-05 17:48 50.16253 29.46655 20214 ft 360 kts 69°
2026-05-05 17:48 50.17108 29.50269 19948 ft 350 kts 69°
2026-05-05 17:49 50.17926 29.53732 19628 ft 343 kts 69°
2026-05-05 17:49 50.18764 29.57190 19079 ft 341 kts 63°
2026-05-05 17:49 50.19782 29.60502 18636 ft 336 kts 68°
2026-05-05 17:49 50.20498 29.63931 18139 ft 335 kts 72°
2026-05-05 17:50 50.21179 29.67382 17601 ft 334 kts 71°
2026-05-05 17:50 50.21918 29.70780 17091 ft 331 kts 69°
2026-05-05 17:50 50.22687 29.74173 16594 ft 329 kts 69°
2026-05-05 17:50 50.23459 29.77537 16094 ft 326 kts 69°
2026-05-05 17:51 50.24216 29.80833 15590 ft 323 kts 69°
2026-05-05 17:51 50.24963 29.84079 15083 ft 321 kts 69°
2026-05-05 17:51 50.25720 29.87374 14593 ft 318 kts 69°
2026-05-05 17:51 50.26457 29.90583 14074 ft 316 kts 69°
2026-05-05 17:52 50.27192 29.93785 13559 ft 313 kts 69°
2026-05-05 17:52 50.27931 29.97008 13054 ft 316 kts 69°
2026-05-05 17:52 50.28663 30.00207 12741 ft 314 kts 69°
2026-05-05 17:52 50.29393 30.03405 12431 ft 313 kts 69°
2026-05-05 17:53 50.30120 30.06592 12108 ft 312 kts 69°
2026-05-05 17:53 50.30848 30.09792 11826 ft 310 kts 69°
2026-05-05 17:53 50.31567 30.12951 11521 ft 309 kts 69°
2026-05-05 17:53 50.32284 30.16110 11233 ft 308 kts 69°
2026-05-05 17:54 50.32993 30.19236 10943 ft 307 kts 69°
2026-05-05 17:54 50.33701 30.22363 10664 ft 305 kts 69°
2026-05-05 17:54 50.34404 30.25480 10386 ft 304 kts 69°
2026-05-05 17:54 50.35099 30.28567 10107 ft 298 kts 69°
2026-05-05 17:55 50.35781 30.31601 9833 ft 287 kts 69°
2026-05-05 17:55 50.36427 30.34474 9546 ft 279 kts 69°
2026-05-05 17:55 50.37062 30.37299 9246 ft 272 kts 69°
2026-05-05 17:55 50.37678 30.40045 8918 ft 267 kts 69°
2026-05-05 17:56 50.38288 30.42763 8570 ft 264 kts 69°
2026-05-05 17:56 50.38897 30.45483 8205 ft 261 kts 70°
2026-05-05 17:56 50.39492 30.48142 7835 ft 259 kts 70°
2026-05-05 17:56 50.40075 30.50815 7402 ft 261 kts 73°
2026-05-05 17:57 50.40477 30.53585 7037 ft 266 kts 80°
2026-05-05 17:57 50.40689 30.56454 6713 ft 264 kts 86°
2026-05-05 17:57 50.40728 30.59311 6398 ft 260 kts 90°
2026-05-05 17:57 50.40646 30.62118 5906 ft 263 kts 94°
2026-05-05 17:58 50.40502 30.64952 5553 ft 259 kts 94°
2026-05-05 17:58 50.40350 30.67754 5077 ft 262 kts 96°
2026-05-05 17:58 50.40172 30.70526 4963 ft 247 kts 97°
2026-05-05 17:58 50.39965 30.73142 4839 ft 235 kts 98°
2026-05-05 17:59 50.39775 30.75528 4754 ft 209 kts 97°
2026-05-05 17:59 50.39600 30.77721 4433 ft 199 kts 97°
2026-05-05 17:59 50.39472 30.79766 4125 ft 178 kts 95°
2026-05-05 17:59 50.39394 30.81614 3645 ft 169 kts 94°
2026-05-05 18:00 50.39334 30.83431 3124 ft 165 kts 94°
2026-05-05 18:00 50.39270 30.85102 2694 ft 146 kts 95°
2026-05-05 18:00 50.39178 30.86677 2183 ft 149 kts 98°
2026-05-05 18:00 50.38974 30.88241 1818 ft 147 kts 114°
2026-05-05 18:01 50.38395 30.89558 1492 ft 147 kts 137°
2026-05-05 18:01 50.37585 30.90464 1044 ft 144 kts 156°
2026-05-05 18:01 50.36672 30.90705 616 ft 128 kts 185°
2026-05-05 18:01 50.35792 30.90626 412 ft 128 kts 182°
2026-05-05 18:02 50.34988 30.90565 404 ft 97 kts 182°
2026-05-05 18:02 50.34475 30.90531 406 ft 34 kts 182°
2026-05-05 18:02 50.34296 30.90500 406 ft 25 kts 195°
2026-05-05 18:02 50.34130 30.90393 406 ft 26 kts 212°
2026-05-05 18:03 50.33984 30.90235 409 ft 18 kts 214°
2026-05-05 18:03 50.33887 30.90166 409 ft 16 kts 187°
2026-05-05 18:03 50.33770 30.90155 411 ft 17 kts 183°
2026-05-05 18:03 50.33651 30.90146 413 ft 17 kts 183°
2026-05-05 18:04 50.33527 30.90130 413 ft 18 kts 205°
2026-05-05 18:04 50.33498 30.89954 413 ft 18 kts 273°
2026-05-05 18:04 50.33502 30.89860 413 ft 1 kts 272°
2026-05-05 18:04 50.33503 30.89838 412 ft 2 kts 272°
2026-05-05 18:05 50.33504 30.89804 413 ft 2 kts 272°
2026-05-05 18:05 50.33509 30.89785 413 ft 1 kts 334°
2026-05-05 18:05 50.33529 30.89790 413 ft 4 kts 13°
2026-05-05 18:05 50.33562 30.89794 413 ft 0 kts